Regional Weather Roundup
Issued by NWS Newport/Morehead, NC

Current Version | Previous Version | Graphics & Text | Print | Product List | Glossary Off
Versions: 1 2 3 4 5 6 7 8 9 10 11 12 13 14 15 16 17 18 19 20 21 22 23 24 25 26 27 28 29 30 31 32 33 34 35 36 37 38 39 40 41 42 43 44 45 46 47 48 49 50

636
ASUS42 KMHX 270813
RWRMHX
WEATHER ROUNDUP FOR EASTERN NORTH CAROLINA
NATIONAL WEATHER SERVICE NEWPORT/MOREHEAD CITY NC
400 AM EDT THU APR 27 2017

NOTE: "FAIR" INDICATES FEW OR NO CLOUDS BELOW 12,000 FEET
WITH NO SIGNIFICANT WEATHER AND/OR OBSTRUCTIONS TO VISIBILITY

NCZ015>017-031-032-045>047-102-103-270900-
NORTH COAST

CITY           SKY/WX    TMP DP  RH WIND       PRES   REMARKS
EDENTON        CLOUDY    69  64  84 SW5       29.87S
ELIZABETH CITY CLOUDY    67  66  97 S10       29.86R
KITTY HAWK     PTSUNNY   68  67  98 CALM      29.86S
MANTEO         MOCLDY    67  64  90 SW10      29.87S

$$

NCZ045>047-081-094-103-104-270900-
CENTRAL COAST

CITY           SKY/WX    TMP DP  RH WIND       PRES   REMARKS
FRISCO         CLEAR     70  66  87 SW9       29.89S FOG

$$

NCZ095-097-098-100-101-270900-
SOUTHERN COAST

CITY           SKY/WX    TMP DP  RH WIND       PRES   REMARKS
BEAUFORT       CLEAR     70  67  90 SW8       29.89S
CEDAR ISLAND   NOT AVBL
JACKSONVILLE   CLEAR     65  62  90 SW3       29.88R
PINEY ISLAND   SUNNY    N/A N/A N/A SW6       29.89R
WILMINGTON     CLEAR     65  63  93 S3        29.88F


$$

NCZ011>013-027>030-043-044-078>080-089-090>093-098-270900-
COASTAL PLAIN

CITY           SKY/WX    TMP DP  RH WIND       PRES   REMARKS
AHOSKIE          N/A     65  63  93 S5        29.85R
CLINTON        CLEAR     63  60  89 CALM      29.88S
ELIZABETHTOWN  CLEAR     62  59  90 CALM      29.88S
GOLDSBORO      CLEAR     67  62  86 SW6       29.86R
GREENVILLE     NOT AVBL
HAVELOCK       CLEAR     67  63  87 SW5       29.90R
KENANSVILLE    CLEAR     63  59  88 CALM      29.88S
KINSTON        CLEAR     65  59  81 CALM      29.88S
NEW BERN       CLEAR     64  63  96 SW6       29.89S
RICHLANDS      CLEAR     62  60  93 S5        29.89S
ROCKY MOUNT    CLEAR     65  61  87 S9        29.85S
WASHINGTON     CLEAR     65  60  85 SW3       29.88R
WHITEVILLE     CLEAR     59  58  96 CALM      29.88S

$$

AMZ130-135-150-152-154-156-158-170-250-252-270-ANZ085-086-088-633-658-670-270900-
MARINE OBSERVATIONS

STATION/POSITION TIME  TEMP    WIND        PRES    WAVE   SWELL
                       AIR SEA DIR/SP/G            HT/PER HT/PER
                 (UTC) (F)     (DEG/KT/KT) (MB)    (FT/S) (FT/S)
CHESAPEAKE LIGHT NOT AVBL
64 E VA BEACH    0750   59 55  200/  8/ 10 1011.6    5/10   5/10
DUCK             0742   69 59  200/ 10/ 14 1010.6
2 E DUCK         0800      61                N/A     4/ 9   2/12
OREGON INLET     0742   69 67  210/ 13/ 15 1011.4
13E OREGON INLT  0748      59                N/A     4/ 9   5/ 9
HATTERAS CG      0742   70 69  220/  9/ 11 1011.9
DIAMOND BUOY     0750   76 77  230/ 19/ 23 1011.9    6/10   3/10
CAPE LOOKOUT     0800   70     220/  6/  8 1012.1
BEAUFORT LAB     0742   70 67  220/  3/  9 1011.4
30 SE NEW RVR IN 0708   71     220/ 10/ 14 1012.3
30 SE NEW RVR IN 0743      71                N/A     4/ 8   2/11
27 SE WRIGHTSVLE 0708   72 72  220/ 10/ 14 1011.6
5 SE WRIGHTSVLE  0708   70 70  220/ 10/ 12 1012.0
225 S CAPE HAT   0750   74 75  190/ 14/ 17 1014.6    6/ 9   3/ 9
41 SE CHARLESTON 0750   73 73  200/ 10/ 12 1011.5    5/ 9   5/ 9

$$




USA.gov is the U.S. government's official web portal to all federal, state and local government web resources and services.